Content
SEND FEEDBACK

Daily
Averages
Monthly
Summary
Mexico

CANCUN, QUINTANA ROO


Home > North America > Mexico > Quintana Roo
Elevation: 9 meters     Latitude: 21 09N     Longitude: 086 49W

WEATHER
 
SELECT A DAY
Number of Records: 163,561;   Date Range: 1/1/95 - 7/9/14
 
SHARE

PRINT THIS DATA

[ ← Previous Day ]
WEATHER ALMANAC - 3 JANUARY, 2013
[ Next Day → ]
[ °F ]   °C
Weather ElementAverageHighLow
Temperature23.9 °C28 °C (10:50 am)18 °C (5:45 am)
Dewpoint20.9 °C22 °C (8:41 am)18 °C (5:45 am)
Humidity84.8 %100 % (2:43 am)66 % (10:50 am)
Barometer1016.9 hPa1019 hPa (9:48 pm)1015.6 hPa (2:43 am)
Wind Speed8.2 km/h18.5 km/h (12:44 pm)
Weather ElementAverage
Visibility11.3 km
Wind DirectionSSE (146.5 °)

Weather ElementTotal
Precipitation---
Cooling Degree Days4.7 (Base 18.3)
Growing Degree Days13 (Base 10)
Averaged from 23 records on 3 January, 2013
WEATHER CONDITIONS BREAKOUT
WIND DIRECTION BREAKOUT
WEATHER BY HOUR - 3 JANUARY, 2013
[ °F ]   °C
Local TimeTemperatureDewpointHumidityBarometerVisibilityWind DirectionWind SpeedGust SpeedPrecipitationEventsConditions
1:44 AM21 °C20 °C94 %1015.9 hPa11.3 kmWNW (300°)5.6 km/hPartly Cloudy
2:43 AM20 °C20 °C100 %1015.6 hPa11.3 kmNNW (330°)3.7 km/hPartly Cloudy
3:43 AM19 °C19 °C100 %1015.6 hPa11.3 kmESE (120°)5.6 km/hPartly Cloudy
4:40 AM19 °C19 °C100 %1015.9 hPa11.3 kmNW (310°)3.7 km/hPartly Cloudy
5:45 AM18 °C18 °C100 %1016.3 hPa11.3 kmNorth (350°)3.7 km/hPartly Cloudy
6:42 AM18 °C18 °C100 %1016.9 hPa11.3 kmNorth (360°)3.7 km/hScattered Clouds
7:56 AM21 °C20 °C94 %1017.3 hPa11.3 kmCalmPartly Cloudy
8:41 AM25 °C22 °C83 %1018.3 hPa11.3 kmCalmPartly Cloudy
9:41 AM27 °C22 °C74 %1018.3 hPa11.3 kmSE (130°)13 km/hScattered Clouds
10:50 AM28 °C21 °C66 %1017.6 hPa11.3 kmESE (120°)16.7 km/hScattered Clouds
11:46 AM28 °C21 °C66 %1016.9 hPa11.3 kmSE (140°)9.3 km/hPartly Cloudy
12:44 PM28 °C21 °C66 %1015.9 hPa11.3 kmSE (130°)18.5 km/hClear
1:44 PM28 °C22 °C70 %1015.6 hPa11.3 kmESE (120°)14.8 km/hClear
2:44 PM28 °C21 °C66 %1015.6 hPa11.3 kmSSE (160°)13 km/hPartly Cloudy
3:43 PM27 °C21 °C70 %1015.9 hPa11.3 kmSE (140°)14.8 km/hScattered Clouds
4:45 PM26 °C22 °C78 %1016.3 hPa11.3 kmESE (110°)9.3 km/hScattered Clouds
5:41 PM24 °C22 °C89 %1016.9 hPa11.3 kmEast (100°)7.4 km/hPartly Cloudy
6:44 PM24 °C22 °C89 %1017.6 hPa11.3 kmEast (100°)5.6 km/hPartly Cloudy
7:41 PM24 °C22 °C89 %1018.3 hPa11.3 kmENE (70°)5.6 km/hClear
8:40 PM24 °C22 °C89 %1018.3 hPa11.3 kmENE (70°)5.6 km/hClear
9:48 PM24 °C22 °C89 %1019 hPa11.3 kmEast (80°)9.3 km/hClear
10:47 PM24 °C22 °C89 %1019 hPa11.3 kmENE (60°)9.3 km/hClear
11:46 PM24 °C22 °C89 %1017.6 hPa11.3 kmENE (70°)9.3 km/hClear
Hourly data recorded from MMUN, located 0 kilometers away from Cancun, Quintana Roo







STORIES FROM OUR PARTNERS